Home > Time Zones > World Clock > Weather > France > Pau > Past weeks

Flag for France Weather past 2 weeks in Pau, France

Now
43 °F

Partly cloudy.


Feels Like: 39 °F
Forecast: 38 / 50 °F
Wind: 6 mph from West

Location: Pau Airport

Current Time: Jan 27, 2015 at 8:03:40 PM

Latest Report: Jan 27, 2015 at 7:30 PM


Visibility: N/A

Pressure: 30.42 "Hg

Humidity: 81%

Dew point: 37 °F

Location of PauLocation

Historic Weather in Pau — Graph

°F

Pau temperature yesterday

Maximum temperature yesterday: 46 °F (at 3:30 PM)
Minimum temperature yesterday: 28 °F (at 1:30 AM)
Average temperature yesterday: 37 °F

Past Weeks' High & Low Weather Summary

 TemperatureHumidityPressure
High68 °F (Jan 13, 2:00 PM)100% (Jan 16, 5:30 AM)30.57 "Hg (Jan 16, 5:30 AM)
Low27 °F (Jan 24, 7:00 AM)30% (Jan 13, 12:30 PM)29.65 "Hg (Jan 21, 1:00 PM)
Average41 °F82%30.10 "Hg
* Reported Jan 12 7:00 PM — Jan 27 7:00 PM, Pau, Weather by CustomWeather, © 2014

Note: Actual official high and low records may vary slightly from our data, if they occured in-between our weather recording intervals... More about our weather records

Advertising

Pau weather history for previous 24 hours

 ConditionsComfort  
Time TempWeatherWind HumidityBarometerVisibility
7:00 PM
Jan 27
43 °FOvercast.6 mph87%30.42 "HgN/A
6:30 PM45 °FMostly cloudy.8 mph81%30.39 "HgN/A
6:00 PM45 °FMostly cloudy.8 mph76%30.39 "HgN/A
5:30 PM46 °FBroken clouds.9 mph76%30.39 "HgN/A
5:00 PM46 °FMore clouds than sun.6 mph71%30.39 "HgN/A
4:30 PM46 °FOvercast.8 mph71%30.39 "HgN/A
4:00 PM46 °FMore clouds than sun.8 mph71%30.39 "HgN/A
3:30 PM46 °FMostly cloudy.7 mph71%30.39 "HgN/A
3:00 PM46 °FMostly cloudy.6 mph71%30.39 "HgN/A
2:30 PM46 °FPartly sunny.6 mph66%30.39 "HgN/A
2:00 PM46 °FMostly cloudy.7 mph71%30.42 "HgN/A
1:30 PM46 °FBroken clouds.5 mph71%30.42 "HgN/A
1:00 PM46 °FMostly cloudy.7 mph71%30.45 "HgN/A
12:30 PM46 °FCloudy.6 mph71%30.45 "HgN/A
12:00 PM46 °FOvercast.5 mph76%30.45 "HgN/A
11:30 AM45 °FMore clouds than sun.8 mph76%30.45 "HgN/A
11:00 AM45 °FMostly cloudy.7 mph81%30.45 "HgN/A
10:30 AM45 °FMostly cloudy.7 mph81%30.45 "HgN/A
10:00 AM45 °FOvercast.8 mph87%30.42 "HgN/A
9:30 AM45 °FOvercast.8 mph87%30.42 "HgN/A
9:00 AM45 °FOvercast.7 mph93%30.42 "HgN/A
8:30 AM46 °FLight rain. Cloudy.12 mph93%30.42 "HgN/A
8:00 AM46 °FLow clouds.3 mph93%30.39 "HgN/A
7:30 AM46 °FPartly cloudy.5 mph93%30.39 "HgN/A
7:00 AM46 °FMostly cloudy.8 mph100%30.39 "HgN/A
6:30 AM46 °FDrizzle. Fog.6 mph93%30.39 "Hg2 mi
6:00 AM46 °FLight rain. Fog.8 mph93%30.39 "Hg2 mi
5:30 AM46 °FLight rain. Low clouds.9 mph100%30.39 "HgN/A
5:00 AM45 °FMostly cloudy.10 mph100%30.39 "HgN/A
4:30 AM45 °FDrizzle. Fog.9 mph100%30.39 "Hg3 mi
4:00 AM45 °FLight rain. Low clouds.8 mph100%30.39 "Hg4 mi
3:30 AM43 °FMostly cloudy.8 mph100%30.42 "Hg5 mi
3:00 AM43 °FDrizzle. Fog.9 mph100%30.42 "Hg2 mi
2:30 AM43 °FDrizzle. Fog.7 mph100%30.42 "Hg3 mi
2:00 AM43 °FDrizzle. Fog.9 mph93%30.42 "Hg3 mi
1:30 AM43 °FOvercast.6 mph93%30.45 "HgN/A
1:00 AM41 °FMostly cloudy.7 mph100%30.45 "HgN/A
12:30 AM41 °FMostly cloudy.6 mph100%30.45 "HgN/A
12:00 AM41 °FLight rain. Fog.5 mph93%30.48 "Hg3 mi
11:30 PM
Jan 26
41 °FDrizzle. Overcast.7 mph93%30.48 "Hg4 mi
11:00 PM41 °FMostly cloudy.3 mph93%30.48 "HgN/A
10:30 PM41 °FOvercast.6 mph93%30.48 "HgN/A
10:00 PM41 °FDrizzle. Overcast.5 mph87%30.48 "HgN/A
9:30 PM43 °FLight rain. Overcast.6 mph81%30.48 "HgN/A
9:00 PM43 °FLight rain. Overcast.5 mph81%30.48 "HgN/A
8:30 PM43 °FLight rain. Overcast.3 mph76%30.48 "HgN/A
8:00 PM43 °FMostly cloudy.3 mph71%30.48 "HgN/A
Weather by CustomWeather, © 2014

See weather overviewHow to use our weather pages